This is the latest recevied weather packets stored in our database for station/object KM4KBD. If no packets are shown the sender has not sent any weather packets the latest 10 day(s).
| Time | Temp. | Humidity | Pressure | Rain* | Wind** | Luminosity | Snow |
|---|---|---|---|---|---|---|---|
| 1778178868 | 15.56° C | 42% | 1020.2 hPa | 0 mm | - | 734 W/m² | - |
| 1778178565 | 15.56° C | 42% | 1020.6 hPa | 0 mm | - | 738 W/m² | - |
| 1778178261 | 16.67° C | 42% | 1020.4 hPa | 0 mm | - | 742 W/m² | - |
| 1778177958 | 16.11° C | 41% | 1020.6 hPa | 0 mm | - | 745 W/m² | - |
| 1778177654 | 16.11° C | 44% | 1020.5 hPa | 0 mm | - | 751 W/m² | - |
| 1778177350 | 16.11° C | 49% | 1020.5 hPa | 0 mm | - | 752 W/m² | - |
| 1778177047 | 16.67° C | 45% | 1020.2 hPa | 0 mm | - | 758 W/m² | - |
| 1778176743 | 15.56° C | 43% | 1020.6 hPa | 0 mm | - | 437 W/m² | - |
| 1778176440 | 16.11° C | 45% | 1020.4 hPa | 0 mm | - | 761 W/m² | - |
| 1778176138 | 16.11° C | 45% | 1020.4 hPa | 0 mm | - | 776 W/m² | - |
| 1778175835 | 16.67° C | 42% | 1020.4 hPa | 0 mm | - | 771 W/m² | - |
| 1778175533 | 16.11° C | 49% | 1020.7 hPa | 0 mm | - | 770 W/m² | - |
| 1778175229 | 15.56° C | 45% | 1020.8 hPa | 0 mm | - | 766 W/m² | - |
| 1778174925 | 15° C | 45% | 1021 hPa | 0 mm | - | 780 W/m² | - |
| 1778174622 | 15° C | 47% | 1020.9 hPa | 0 mm | - | 847 W/m² | - |
| 1778174318 | 16.67° C | 48% | 1021.3 hPa | 0 mm | - | 213 W/m² | - |
| 1778174015 | 16.67° C | 46% | 1021.3 hPa | 0 mm | - | 833 W/m² | - |
| 1778173712 | 16.67° C | 47% | 1021.4 hPa | 0 mm | - | 661 W/m² | - |
| 1778173409 | 16.11° C | 51% | 1021.3 hPa | 0 mm | - | 838 W/m² | - |
| 1778173105 | 15.56° C | 47% | 1021.3 hPa | 0 mm | - | 790 W/m² | - |
| 1778172801 | 16.11° C | 49% | 1021.2 hPa | 0 mm | - | 801 W/m² | - |
| 1778172497 | 16.11° C | 46% | 1021.1 hPa | 0 mm | - | 203 W/m² | - |
| 1778172194 | 16.67° C | 43% | 1021.2 hPa | 0 mm | - | 440 W/m² | - |
| 1778171891 | 16.11° C | 46% | 1021.1 hPa | 0 mm | - | 787 W/m² | - |
| 1778171589 | 15.56° C | 48% | 1021.5 hPa | 0 mm | - | 768 W/m² | - |
* Rain latest hour (hover to see other rain measurements)
** Current wind speed in m/s (hover to see current wind gust speed)